Probability
0 0 0 0 0 0 0 0 0 0 0 0 0 1 2 3 3 2 8 27 41 34 19 13 12 8 4 3 3 2 1 0 0 0 0 0 0 0 1 2 2 2 2 1 0 0 0 0 0
0 0 0 0 0 0 0 0 0 0 0 0 0 2 5 8 7 6 13 28 34 24 14 13 14 11 6 3 3 3 2 1 1 1 1 0 0 0 0 1 1 1 1 0 0 0 0 0 0
0 0 0 0 0 0 0 0 0 0 0 0 2 7 13 15 14 14 20 27 25 15 11 14 17 15 9 5 4 4 5 4 4 4 2 1 0 0 0 0 0 0 1 0 0 0 0 0 0
0 0 0 0 0 0 0 0 0 0 0 1 7 19 28 28 24 22 22 23 20 15 13 15 19 16 10 6 5 6 6 7 8 7 5 2 1 1 0 0 0 0 0 0 0 0 0 0 0
0 0 0 0 0 0 0 0 0 0 0 3 13 31 44 43 34 26 20 20 22 21 18 19 21 17 9 7 7 7 8 10 10 9 7 4 3 3 2 2 1 0 0 0 0 0 0 0 0
0 0 0 0 0 0 0 0 0 0 1 4 15 34 49 47 35 24 17 19 26 28 22 21 23 18 11 9 10 10 12 14 16 14 12 9 6 5 4 3 2 1 1 0 0 0 0 0 0
0 0 0 0 0 0 0 0 0 0 2 5 15 33 48 47 34 22 16 18 27 29 22 17 17 16 12 10 13 16 17 20 21 20 18 14 8 6 5 3 3 3 2 0 0 0 0 0 0
0 0 0 0 0 0 0 0 0 2 4 9 18 36 52 49 35 25 21 22 29 29 20 12 10 11 8 7 12 18 22 23 23 20 17 13 8 4 2 3 6 6 2 0 0 0 0 0 0
0 0 0 0 0 0 0 0 2 4 8 15 25 39 51 47 36 30 28 31 36 33 21 11 9 8 5 5 10 15 17 19 18 14 11 8 4 1 1 7 14 13 6 2 1 1 0 0 0
0 0 0 0 0 0 1 1 4 7 11 18 28 38 44 43 38 34 35 37 40 35 23 16 15 13 10 11 12 9 9 14 13 11 11 8 4 4 8 20 29 24 14 7 4 3 1 0 0
0 0 0 0 0 1 2 4 8 11 14 18 28 36 41 42 38 36 38 40 40 35 26 22 24 23 21 21 18 10 12 18 16 17 21 16 9 11 21 35 40 33 21 13 10 7 3 1 1
0 0 0 0 0 1 3 7 12 14 15 18 25 34 38 38 37 36 40 45 45 39 31 29 33 34 34 34 28 20 22 28 27 32 35 27 19 19 29 41 42 33 22 16 13 10 5 3 3
0 0 0 0 0 0 3 8 12 14 15 17 23 27 29 30 32 37 44 50 51 45 40 40 44 45 49 51 44 34 35 38 39 46 47 38 30 28 35 45 44 32 23 19 16 12 10 10 10
0 0 0 0 0 0 2 6 10 11 14 19 22 23 22 24 28 34 43 48 49 48 48 52 55 57 62 63 55 47 48 49 51 55 55 45 38 39 46 51 49 37 30 30 26 21 20 23 24
0 0 0 0 0 0 1 4 6 7 12 19 22 21 22 24 27 31 35 40 43 43 49 56 60 63 66 63 57 54 56 60 63 65 63 53 47 51 56 56 54 47 44 45 43 37 35 37 38
0 0 0 0 0 0 1 3 5 6 11 18 21 21 24 26 28 30 32 36 39 41 45 51 57 62 63 58 55 55 59 65 70 71 68 62 57 58 60 60 58 57 58 58 56 51 48 48 49
0 0 0 0 0 0 1 3 6 7 11 17 21 22 23 26 30 34 37 38 41 42 44 48 53 57 57 53 53 55 60 67 72 72 71 68 64 61 61 61 61 63 66 66 62 59 58 56 53
0 0 0 0 0 0 0 3 7 8 10 17 21 22 24 28 30 34 38 39 40 43 46 50 52 53 54 54 54 56 59 65 70 70 70 70 68 64 61 60 61 63 66 66 63 62 60 56 50
0 0 0 0 0 0 1 3 6 7 9 17 23 24 25 26 24 25 29 31 35 41 47 51 52 52 55 57 58 59 60 63 66 68 69 70 68 64 59 58 60 62 62 62 61 60 57 51 45
0 0 0 0 0 0 1 3 5 6 10 18 23 25 25 23 18 15 17 19 25 35 43 49 51 52 55 58 60 61 61 62 64 65 67 67 63 59 57 58 60 60 59 57 56 54 51 45 39
0 0 0 0 0 0 1 3 6 9 13 17 20 23 24 20 16 14 14 14 19 26 35 43 49 52 53 55 58 58 60 62 63 64 64 62 58 54 53 56 57 56 54 52 50 47 45 39 31
0 0 0 0 0 0 0 3 8 13 16 15 15 19 22 20 18 18 18 17 19 21 26 35 43 46 47 49 52 54 57 59 59 60 60 57 54 50 49 51 53 51 49 46 45 42 39 33 27
0 0 0 0 0 0 0 2 8 14 15 14 14 18 22 20 16 17 18 17 17 18 20 26 32 36 38 40 43 48 51 52 51 51 52 52 50 48 49 49 47 46 45 43 40 38 34 29 25
0 0 0 0 0 0 0 1 5 10 13 14 16 20 22 17 12 13 14 14 13 13 15 18 22 26 29 32 35 39 41 42 42 43 45 47 48 48 48 45 40 38 38 35 32 31 28 24 22
0 0 0 0 0 0 0 1 4 8 13 18 21 24 22 13 9 11 12 11 9 9 10 12 15 19 23 27 30 32 34 35 37 39 41 43 42 40 39 35 31 27 26 24 23 22 21 19 17
0 0 0 0 0 0 0 2 6 11 17 22 27 28 21 12 9 10 10 8 7 8 9 11 12 15 19 23 26 28 30 32 34 34 34 34 31 27 24 23 21 18 15 14 14 14 13 12 12
0 0 0 0 0 0 0 2 9 15 19 23 27 25 17 11 9 8 6 4 4 6 9 11 11 12 15 18 21 22 22 24 24 24 22 22 20 16 14 14 13 11 9 8 8 7 6 6 7
0 0 0 0 0 0 0 1 7 12 15 17 19 19 14 10 8 6 4 3 2 4 7 8 8 9 11 13 13 13 13 13 12 12 12 13 12 10 9 8 7 5 4 4 4 4 3 3 4
0 0 0 0 0 0 0 0 4 8 10 11 15 17 14 10 8 6 4 3 2 2 3 3 4 6 8 9 8 7 6 5 4 4 5 6 6 6 5 4 2 1 1 2 2 2 2 2 1
0 0 0 0 0 0 0 1 3 7 10 12 16 17 14 11 9 5 4 4 3 2 1 1 2 4 5 6 6 5 4 2 1 1 2 2 2 2 2 1 0 0 0 1 1 1 1 1 0
Wind_Speed
9 12 11 9 8 10 17 16 8 6 5 6 4 5 8 9 8 8 7 15 22 20 18 16 15 16 16 16 15 15 14 14 13 12 12 11 11 11 10 11 10 10 10 10 10 10 10 10 10
10 13 11 8 10 13 15 13 7 7 8 6 4 4 9 10 11 12 11 18 21 19 17 15 15 15 16 16 15 15 15 14 13 12 12 11 11 10 10 9 9 9 9 9 9 9 9 9 9
12 16 10 9 14 15 12 3 5 9 6 3 3 5 7 9 9 11 14 19 20 18 16 16 16 15 15 16 16 15 15 14 14 13 12 11 11 10 9 9 9 9 8 9 9 9 9 9 8
9 10 8 11 17 17 10 2 4 5 5 6 5 6 9 8 8 14 17 19 20 19 17 16 15 15 15 15 15 15 15 14 14 13 12 11 10 9 9 9 8 8 8 8 8 8 8 8 7
11 8 12 14 17 14 6 3 2 3 6 7 5 7 9 11 13 17 17 19 19 19 17 16 15 15 14 14 14 14 14 13 13 12 12 11 10 9 8 8 8 8 8 8 8 8 7 7 7
9 9 12 15 16 11 5 3 3 6 6 7 8 9 8 8 9 14 16 16 18 19 18 15 15 15 14 14 13 13 13 13 12 12 11 11 10 9 8 8 8 8 7 7 7 7 7 6 6
11 11 14 17 14 9 4 4 5 7 7 6 7 9 9 9 6 9 14 16 18 18 17 15 14 13 13 13 13 12 12 12 11 11 11 10 10 9 9 8 7 8 7 7 7 7 7 6 5
12 12 17 17 13 7 5 4 5 6 4 1 1 7 12 12 7 8 13 14 17 17 16 14 14 13 12 11 12 12 12 11 11 11 11 10 10 9 9 8 8 8 8 8 8 7 7 6 5
15 13 15 16 11 5 6 6 6 4 2 3 6 12 15 14 11 10 12 13 13 14 14 13 14 13 12 12 12 12 11 10 10 9 10 9 8 8 8 10 10 9 8 8 8 8 7 7 7
12 12 16 13 7 2 5 6 7 6 5 5 8 15 17 14 11 11 11 12 13 12 12 11 11 11 11 10 10 8 8 9 7 7 8 7 5 5 7 9 12 11 9 9 9 9 8 7 6
14 16 14 8 5 5 1 4 2 2 5 7 11 15 13 11 11 11 10 10 11 11 9 9 9 7 7 7 8 5 4 6 6 6 7 5 4 3 4 4 7 7 8 7 8 8 7 7 5
14 14 12 7 3 5 4 2 2 2 2 7 11 12 11 7 7 8 8 9 10 9 7 8 9 7 6 6 5 4 4 5 4 5 6 5 3 3 3 3 5 5 4 5 6 5 7 7 6
14 12 9 6 5 6 5 3 3 3 4 7 12 11 9 5 4 6 8 8 8 8 5 6 6 5 4 4 3 4 3 4 4 4 5 4 3 2 2 3 3 5 4 4 4 5 5 4 3
11 11 9 8 8 8 7 6 5 3 4 6 7 10 9 6 5 8 9 11 9 7 4 4 6 5 4 3 2 2 2 2 3 3 4 4 3 2 2 2 2 3 3 4 4 4 3 2 1
10 10 10 11 11 11 11 10 8 8 6 7 7 7 8 8 10 11 10 9 7 5 5 3 4 5 4 3 1 1 1 1 1 2 3 2 2 1 2 2 3 3 3 2 2 3 2 2 2
10 12 13 13 13 12 12 11 10 9 8 8 8 8 9 10 11 10 9 5 6 6 4 2 2 5 3 2 1 0 0 1 1 1 2 2 2 2 2 3 3 3 2 2 2 2 2 2 2
13 14 15 13 14 11 13 9 9 8 8 9 8 8 8 9 10 10 10 7 6 6 4 3 5 5 3 2 1 0 0 1 1 1 1 2 2 2 2 3 2 2 2 2 4 3 3 3 3
12 15 15 12 13 12 12 8 10 9 9 9 9 9 8 9 10 10 10 9 8 7 6 5 6 5 3 1 1 0 0 0 0 1 1 1 1 1 2 2 3 3 2 3 3 3 3 3 3
13 13 10 9 11 11 11 11 12 12 10 10 9 8 9 10 10 10 9 8 8 7 6 6 5 4 2 2 1 0 0 0 0 0 0 0 0 1 2 3 3 3 3 4 4 3 4 4 4
13 11 7 7 9 7 9 11 12 11 10 9 10 11 10 10 10 9 8 7 8 7 7 6 5 4 4 3 2 1 1 1 0 0 1 1 0 1 2 2 2 3 3 4 3 4 3 3 4
11 10 7 5 7 8 8 10 12 11 8 7 8 10 10 10 9 8 8 8 7 7 7 6 6 5 5 4 2 1 1 1 0 0 1 0 1 1 1 2 2 2 3 3 3 4 4 4 5
9 8 7 7 8 7 10 9 11 11 9 6 7 9 9 9 9 8 8 7 7 7 6 6 6 6 5 4 3 3 1 1 2 1 0 0 1 1 1 1 2 2 1 2 3 3 3 4 4
8 7 8 8 8 9 9 10 7 12 12 10 8 9 10 9 9 8 7 7 8 7 7 6 6 6 5 5 4 3 3 2 2 1 1 0 0 1 1 1 1 1 1 2 2 2 3 3 4
9 8 9 7 7 12 9 9 7 9 11 12 11 10 11 10 9 8 7 7 7 7 7 6 6 6 6 6 5 4 4 3 3 2 2 1 1 1 2 2 2 1 1 2 2 2 3 4 4
7 7 5 5 6 9 7 8 4 11 14 15 15 13 11 10 8 7 7 8 7 7 7 7 6 6 6 6 5 5 4 4 3 3 2 2 2 2 3 3 2 2 2 2 1 1 1 3 4
9 11 6 4 5 6 6 5 4 9 12 14 15 14 12 10 8 8 8 7 7 7 7 7 6 6 6 6 6 5 5 4 3 4 4 3 3 3 3 3 3 3 3 3 2 1 1 0 1
8 9 6 6 8 4 3 1 5 10 11 12 14 13 11 10 9 8 8 7 6 6 6 6 6 6 6 6 6 6 6 5 5 5 5 4 4 3 4 4 4 4 4 3 3 2 3 2 2
8 8 4 6 6 4 4 4 3 7 8 10 12 12 11 11 8 8 7 7 6 6 6 6 6 6 6 6 6 5 6 6 6 6 6 5 5 5 5 5 5 5 5 5 4 4 4 5 5
7 7 7 7 5 4 2 0 2 5 8 9 11 12 12 11 9 8 7 6 5 6 6 6 6 6 6 6 6 6 6 6 6 6 6 5 5 5 5 5 6 6 5 5 5 5 6 7 6
6 6 6 6 7 6 2 1 2 4 5 9 11 12 12 10 9 8 7 6 6 7 6 6 6 6 6 6 6 6 6 6 7 7 6 6 6 6 6 6 7 7 6 6 6 7 7 7 7
Wind_Direction
254 254 249 249 242 239 248 252 243 128 115 103 82 68 74 64 78 103 126 114 116 122 129 130 132 138 142 143 142 140 139 138 136 134 132 128 124 121 118 115 115 115 114 113 113 114 112 109 108
256 245 240 244 244 242 241 236 217 125 94 84 114 120 99 88 97 114 125 118 121 126 135 132 132 137 143 145 144 143 143 143 141 139 138 136 133 129 126 123 121 118 118 118 118 119 118 118 119
254 255 246 240 241 254 266 247 145 114 109 158 170 127 98 95 97 113 123 126 125 130 129 126 133 136 142 145 146 147 147 147 146 145 144 143 140 137 135 133 129 124 122 122 124 124 125 126 128
234 231 238 246 246 244 258 334 97 125 161 194 176 110 91 91 110 121 132 132 130 131 125 129 132 135 140 145 147 149 149 150 150 150 149 148 147 145 145 142 137 132 129 128 129 131 133 134 136
237 239 234 248 252 253 237 113 100 216 194 192 159 116 91 74 102 126 137 133 132 128 127 131 131 132 137 143 146 148 149 150 151 151 152 152 151 150 152 150 146 143 140 139 138 140 141 143 145
225 232 240 245 247 243 224 157 196 246 231 190 165 135 102 102 120 134 134 133 128 126 128 130 132 133 136 140 143 146 147 148 150 152 153 154 155 155 158 157 156 155 151 150 150 149 152 153 156
242 248 251 255 253 232 193 168 216 233 240 210 171 136 123 113 120 136 133 129 127 128 131 139 139 137 136 136 139 142 144 146 149 152 155 157 160 162 165 163 163 163 162 161 159 160 163 166 170
245 265 267 264 262 234 167 178 236 246 250 4 173 133 127 125 154 150 135 131 131 131 136 145 149 146 148 144 142 142 144 146 150 155 160 163 167 172 174 173 174 173 173 173 170 171 175 178 186
243 256 263 262 256 224 163 188 212 238 235 75 78 94 121 138 151 154 139 134 130 131 138 150 151 154 159 155 148 148 149 151 154 163 168 172 184 185 186 193 173 181 183 183 181 182 185 188 200
231 245 251 266 280 247 168 194 208 202 192 148 107 104 127 143 153 158 143 141 133 132 141 147 148 155 162 154 147 162 169 161 180 173 174 194 202 195 190 173 170 180 186 189 193 195 197 207 205
230 246 267 288 318 325 236 200 216 199 200 165 140 129 132 145 160 153 144 139 132 132 141 145 142 145 150 138 150 163 169 159 193 183 176 203 209 196 168 163 167 180 189 198 191 200 213 213 214
236 247 264 278 294 288 273 239 168 156 114 95 99 107 115 140 157 140 137 131 125 132 138 133 137 142 142 135 150 156 166 157 180 171 180 198 211 207 177 175 171 185 198 208 192 208 216 220 220
236 249 254 260 249 247 244 233 198 168 123 94 94 101 120 136 117 93 87 73 92 102 112 123 119 126 118 118 150 152 164 156 179 173 182 197 204 217 207 175 175 197 194 201 214 210 209 222 234
233 240 239 235 232 225 228 224 203 184 135 111 109 120 134 134 101 70 66 74 57 55 56 78 106 107 102 105 113 117 150 147 163 163 177 198 212 201 215 194 194 218 203 193 210 213 198 208 248
245 242 233 224 221 216 215 218 200 181 155 138 125 113 104 89 79 70 60 63 83 68 48 36 95 94 90 105 117 129 135 134 141 149 168 194 220 213 232 227 199 226 222 209 212 207 199 203 208
235 235 232 216 211 210 217 212 185 170 161 154 137 115 95 79 79 85 82 64 82 87 75 34 69 97 92 82 96 306 43 76 90 133 158 182 226 229 243 246 228 221 226 204 206 211 204 197 170
222 228 229 207 198 206 216 211 169 160 173 156 141 123 112 100 84 87 100 101 90 98 105 69 50 57 72 87 114 229 52 66 85 101 140 169 219 231 241 253 259 236 222 216 219 203 190 177 164
225 227 223 199 186 210 209 190 153 165 187 160 144 133 121 97 82 75 77 82 79 78 73 65 63 45 25 54 69 94 75 77 105 115 143 168 200 238 257 254 254 254 232 219 218 205 185 170 156
261 254 225 193 175 205 206 179 162 179 180 160 146 133 115 102 94 81 70 69 69 67 65 62 57 48 25 29 15 52 292 297 287 206 136 163 190 252 239 261 246 237 241 233 211 195 188 178 152
270 268 231 171 163 209 211 185 173 179 175 160 148 133 126 116 101 94 86 77 68 61 53 58 47 36 27 21 349 334 331 300 262 37 57 37 336 274 253 246 252 234 233 228 207 202 195 188 177
255 257 235 186 177 214 233 208 182 173 156 148 146 131 123 118 112 104 89 77 69 62 51 43 37 32 25 6 350 344 331 283 268 135 106 25 306 266 288 281 272 264 248 229 210 203 201 201 191
255 258 254 214 215 217 218 228 192 173 166 167 164 139 129 120 109 97 85 71 64 58 57 52 43 34 23 9 4 354 336 328 335 343 84 71 332 307 290 286 278 267 253 244 229 212 210 200 196
254 253 251 243 236 250 228 241 203 180 181 183 185 147 130 119 109 98 88 78 65 53 48 46 41 34 24 15 11 351 341 344 349 3 347 4 4 331 330 336 316 298 271 261 246 231 220 212 210
244 240 239 254 252 248 249 246 209 178 184 177 174 148 130 123 112 104 94 83 68 54 44 38 37 30 22 17 13 4 350 344 338 346 339 343 12 0 1 356 351 333 322 299 272 242 227 219 217
245 245 237 244 250 257 277 252 177 162 171 163 159 147 136 130 121 109 93 77 64 51 37 31 32 26 18 15 15 10 357 346 344 356 1 1 17 23 12 8 2 356 343 329 319 267 242 229 220
234 247 247 245 250 261 264 270 119 126 132 140 141 138 135 129 115 102 86 74 62 52 38 30 26 26 21 18 17 16 13 5 14 22 19 19 26 27 14 12 14 9 5 3 14 22 357 302 229
235 246 250 269 271 265 264 157 104 102 112 124 128 131 130 117 108 99 89 77 63 52 46 35 26 25 23 22 21 25 25 20 26 31 30 28 26 28 25 28 32 27 23 22 30 46 43 46 49
255 270 266 258 274 271 226 209 163 150 148 143 139 137 129 116 109 93 83 75 65 57 53 43 34 31 32 33 28 31 30 30 34 39 39 35 30 33 36 40 43 44 40 40 48 56 57 66 67
242 256 278 288 292 298 313 23 115 168 170 165 152 142 131 126 117 103 89 77 71 63 54 49 40 41 42 40 38 36 36 38 43 46 42 38 39 44 49 46 48 48 48 52 62 68 68 70 69
262 262 269 286 304 312 331 286 116 130 154 146 134 128 122 117 111 104 92 79 66 56 48 49 42 45 41 42 43 42 39 46 50 50 44 42 47 50 56 59 57 54 54 56 64 71 69 75 79